TimeEST,TemperatureF,Dew PointF,Humidity,Sea Level PressureIn,VisibilityMPH,Wind Direction,Wind SpeedMPH,Gust SpeedMPH,PrecipitationIn,Events,Conditions,WindDirDegrees,DateUTC
12:53 AM,30.9,26.1,82,30.51,10.0,WNW,3.5,-,N/A,,Partly Cloudy,290,2012-11-14 05:53:00
1:53 AM,30.0,26.1,85,30.51,10.0,Calm,Calm,-,N/A,,Overcast,0,2012-11-14 06:53:00
2:53 AM,34.0,28.9,82,30.52,10.0,WNW,3.5,-,N/A,,Overcast,290,2012-11-14 07:53:00
3:53 AM,35.1,27.0,72,30.52,10.0,Calm,Calm,-,N/A,,Overcast,0,2012-11-14 08:53:00
4:53 AM,37.0,25.0,62,30.53,10.0,North,9.2,-,N/A,,Overcast,10,2012-11-14 09:53:00
5:53 AM,36.0,23.0,59,30.54,10.0,North,8.1,-,N/A,,Overcast,360,2012-11-14 10:53:00
6:53 AM,36.0,23.0,59,30.55,10.0,North,6.9,-,N/A,,Overcast,360,2012-11-14 11:53:00
7:53 AM,37.0,23.0,57,30.58,10.0,North,5.8,-,N/A,,Overcast,10,2012-11-14 12:53:00
8:53 AM,39.0,23.0,53,30.58,10.0,North,6.9,-,N/A,,Overcast,360,2012-11-14 13:53:00
9:53 AM,41.0,24.1,51,30.58,10.0,NNE,8.1,18.4,N/A,,Overcast,20,2012-11-14 14:53:00
10:53 AM,42.1,24.1,49,30.56,10.0,NNE,8.1,-,N/A,,Scattered Clouds,30,2012-11-14 15:53:00
11:53 AM,43.0,25.0,49,30.54,10.0,North,9.2,-,N/A,,Partly Cloudy,10,2012-11-14 16:53:00
12:53 PM,44.1,24.1,45,30.51,10.0,NW,5.8,-,N/A,,Clear,310,2012-11-14 17:53:00
1:53 PM,45.0,24.1,44,30.49,10.0,North,5.8,-,N/A,,Clear,10,2012-11-14 18:53:00
2:53 PM,45.0,25.0,46,30.48,10.0,NE,8.1,-,N/A,,Clear,50,2012-11-14 19:53:00
3:53 PM,44.1,25.0,47,30.48,10.0,NE,3.5,-,N/A,,Clear,40,2012-11-14 20:53:00
4:53 PM,41.0,26.1,55,30.48,10.0,Calm,Calm,-,N/A,,Clear,0,2012-11-14 21:53:00
5:53 PM,33.1,28.0,82,30.47,10.0,Calm,Calm,-,N/A,,Clear,0,2012-11-14 22:53:00
6:53 PM,32.0,27.0,82,30.48,10.0,Calm,Calm,-,N/A,,Clear,0,2012-11-14 23:53:00
7:53 PM,30.0,26.1,85,30.47,10.0,Calm,Calm,-,N/A,,Clear,0,2012-11-15 00:53:00
8:53 PM,28.0,25.0,88,30.48,10.0,Calm,Calm,-,N/A,,Clear,0,2012-11-15 01:53:00
9:53 PM,28.0,25.0,88,30.49,10.0,Calm,Calm,-,N/A,,Clear,0,2012-11-15 02:53:00
10:53 PM,28.0,24.1,85,30.48,10.0,Calm,Calm,-,N/A,,Clear,0,2012-11-15 03:53:00
11:53 PM,28.0,25.0,88,30.47,9.0,Calm,Calm,-,N/A,,Clear,0,2012-11-15 04:53:00